{"data":{"norad_id":54042,"epoch":"2026-09-20T22:51:33.156576Z","epoch_age_seconds":116620,"freshness":"FRESH","line1":"1 54042U 22133A   26263.95246709  .00007159  00000+0  29703-3 0  9992","line2":"2 54042  35.0054 237.5654 0028704 345.8745  14.1166 15.22777286219360","mean_motion":15.22777286,"eccentricity":0.0028704,"inclination_deg":35.0054,"raan_deg":237.5654,"arg_perigee_deg":345.8745,"mean_anomaly_deg":14.1166,"bstar":0.00029703,"rev_number":21936,"period_min":94.564058266364,"perigee_km":477.73219710434,"apogee_km":517.20366990661,"semimajor_km":6875.6049335055,"source":"CELESTRAK","updated_at":"2026-09-21T09:00:09.349458Z"}}